STARLINK-32623, 62152

Orbit data source: Space-Track

STARLINK-32623, 62152 is a payload satellite owned by SpaceX/Seattle (US) in LEO that was launched on Sat, 30 Nov 2024 UTC via an FALCON 9 launch vehicle from the Air Force Eastern Test Range (AFETR). Payload-class satellites include a variety of spacecraft equipped with specific instruments for various scientific and technological missions. These include communications satellites like Starlink; space stations such as the ISS; scientific satellites like the Hubble; Earth observation satellites from companies like Planet Labs, Umbra, and HawkEye 360; GPS; miniature CubeSats for education and research; and military/defense satellites.

Loading next visibility...
Identifier
62152, 2024-224P
Orbit
LEO
Country
Flag of USUS
Related business
Manufacturer
SpaceX/Seattle
Mission
Operational Commercial Communications
Bus & Motor
STARLINK V2M, Unknown motor
Mass
730 kg wet, ~700 kg dry
Launch date (UTC)
2024-11-30 (1 year ago)
Launch vehicle
FALCON 9
Launch site
Air Force Eastern Test Range (AFETR)
Object type
Payload
Rocket body
Debris
Shape & HBR
Box + 2 Pan, 17.7 m
Radar Cross Section
33.884 m², Large (>1 m²)

Expand to show TLE details & history
Last TLE update: 19 hours ago

TLE from 19 hours ago
0 STARLINK-32623
1 62152U 24224P   25348.83064182  .00031176  00000-0  11373-2 0  9999
2 62152  42.9963 280.6573 0001230 243.7013 116.3712 15.27588513 59402
Epoch: 2025-12-14T19:56Z
TLE epoch observation values (Epoch: 2025-12-14T19:56:07.453Z)
Latitude
-0.00003°
Longitude
-102.11171°
Altitude
483.173 km
Speed
7.625 km/s
True Right ascension
18h 42m 37s
True Declination
0° 00' 00"
Sunlit
Object was in daylight at epoch
Visualization orbit readout
Latitude
Unknown
Longitude
Unknown
Altitude
Unknown
Speed
Unknown
Apparent Right ascension
Unknown
Apparent Declination
Unknown
Sunlit
N/A
Visualization observer readout
Local Sidereal Time
13:25:41
Azimuth
Unknown
Elevation
Unknown
Doppler factor
Unknown
Orbital elements
Apogee altitude
485.814 km
Perigee altitude
484.125 km
Semi-major axis
6,863.106 km
Eccentricity
0.00012
Inclination
42.9963°
RAAN
280.6573°
Arg. of periapsis
243.7013°
True anomaly
116.38383°
Mean anomaly
116.3712°
Eccentric anomaly
116.37751°
Mean motion
3.81735 °/min
Orbital period
94.31 mins
BSTAR
0.0011373
Loading maneuver chart data...
Computing Atmospheric mass density...
Loading historical data...
Loading historical data...
Loading historical data...
Loading historical data...
Loading historical data...
Loading historical data...
Loading historical data...

Documentation

Showing up to 5 results
|